Saint Bonnet de Bellac- Haute Vienne - France
Donnes mto: dimanche, 13/09/2009
Date Horaire Temp. E. Hum. E. P.atmo. Pluie Vent Direction Direction Ensoleilleme Solaire P. de rose Temp au vent Rafales
13/09/2009 00:00 15,8 C 66 % 1021,1 hPa 0,0 mm 6,1 km/h (2 Bft) NE 45 0 min 0 W/m 9,5 C 15,8 C 10,4 km/h (2 Bft)
13/09/2009 00:10 15,6 C 66 % 1021,1 hPa 0,0 mm 7,9 km/h (2 Bft) N-NO 337 0 min 0 W/m 9,3 C 15,6 C 7,9 km/h (2 Bft)
13/09/2009 00:20 15,6 C 67 % 1021,1 hPa 0,0 mm 7,9 km/h (2 Bft) N-NE 22 0 min 0 W/m 9,5 C 15,6 C 14,4 km/h (3 Bft)
13/09/2009 00:30 15,5 C 67 % 1021,0 hPa 0,0 mm 10,1 km/h (2 Bft) N-NE 22 0 min 0 W/m 9,4 C 15,5 C 15,1 km/h (3 Bft)
13/09/2009 00:40 15,4 C 67 % 1021,1 hPa 0,0 mm 4,0 km/h (1 Bft) NE 45 0 min 0 W/m 9,3 C 15,4 C 6,8 km/h (2 Bft)
13/09/2009 00:50 15,4 C 67 % 1021,2 hPa 0,0 mm 5,4 km/h (2 Bft) N 360 0 min 0 W/m 9,3 C 15,4 C 10,1 km/h (2 Bft)
13/09/2009 01:00 15,3 C 68 % 1021,2 hPa 0,0 mm 6,5 km/h (2 Bft) NE 45 0 min 0 W/m 9,4 C 15,3 C 6,5 km/h (2 Bft)
13/09/2009 01:10 15,1 C 68 % 1021,1 hPa 0,0 mm 4,7 km/h (1 Bft) N-NE 22 0 min 0 W/m 9,2 C 15,1 C 7,2 km/h (2 Bft)
13/09/2009 01:20 14,9 C 68 % 1021,3 hPa 0,0 mm 0,0 km/h (0 Bft) E 90 0 min 0 W/m 9,0 C 14,9 C 0,0 km/h (0 Bft)
13/09/2009 01:30 14,8 C 69 % 1021,1 hPa 0,0 mm 3,6 km/h (1 Bft) N-NE 22 0 min 0 W/m 9,2 C 14,8 C 6,8 km/h (2 Bft)
13/09/2009 01:40 14,6 C 69 % 1021,1 hPa 0,0 mm 1,8 km/h (1 Bft) NO 315 0 min 0 W/m 9,0 C 14,6 C 4,0 km/h (1 Bft)
13/09/2009 01:50 14,4 C 70 % 1021,1 hPa 0,0 mm 4,3 km/h (1 Bft) N 360 0 min 0 W/m 9,0 C 14,4 C 4,3 km/h (1 Bft)
13/09/2009 02:00 14,2 C 69 % 1021,1 hPa 0,0 mm 0,0 km/h (0 Bft) N 360 0 min 0 W/m 8,6 C 14,2 C 0,0 km/h (0 Bft)
13/09/2009 02:10 14,1 C 70 % 1021,0 hPa 0,0 mm 1,4 km/h (1 Bft) N 360 0 min 0 W/m 8,7 C 14,1 C 3,6 km/h (1 Bft)
13/09/2009 02:20 13,9 C 70 % 1021,0 hPa 0,0 mm 0,0 km/h (0 Bft) NE 45 0 min 0 W/m 8,5 C 13,9 C 0,0 km/h (0 Bft)
13/09/2009 02:30 13,8 C 71 % 1021,0 hPa 0,0 mm 2,5 km/h (1 Bft) N 360 0 min 0 W/m 8,6 C 13,8 C 3,2 km/h (1 Bft)
13/09/2009 02:40 13,6 C 71 % 1021,1 hPa 0,0 mm 2,9 km/h (1 Bft) N-NO 337 0 min 0 W/m 8,4 C 13,6 C 2,9 km/h (1 Bft)
13/09/2009 02:50 13,5 C 72 % 1021,1 hPa 0,0 mm 2,5 km/h (1 Bft) N-NO 337 0 min 0 W/m 8,6 C 13,5 C 2,5 km/h (1 Bft)
13/09/2009 03:02 13,4 C 72 % 1021,3 hPa 0,0 mm 1,4 km/h (1 Bft) N-NE 22 0 min 0 W/m 8,5 C 13,4 C 4,0 km/h (1 Bft)
13/09/2009 03:10 13,2 C 73 % 1021,1 hPa 0,0 mm 1,8 km/h (1 Bft) N 360 0 min 0 W/m 8,5 C 13,2 C 6,1 km/h (2 Bft)
13/09/2009 03:20 13,1 C 73 % 1021,1 hPa 0,0 mm 1,1 km/h (1 Bft) N 360 0 min 0 W/m 8,4 C 13,1 C 1,1 km/h (1 Bft)
13/09/2009 03:30 12,9 C 73 % 1021,1 hPa 0,0 mm 3,6 km/h (1 Bft) N-NE 22 0 min 0 W/m 8,2 C 12,9 C 4,0 km/h (1 Bft)
13/09/2009 03:40 12,8 C 75 % 1021,1 hPa 0,0 mm 2,5 km/h (1 Bft) N-NE 22 0 min 0 W/m 8,5 C 12,8 C 4,0 km/h (1 Bft)
13/09/2009 03:50 12,8 C 74 % 1021,1 hPa 0,0 mm 1,8 km/h (1 Bft) N 360 0 min 0 W/m 8,3 C 12,8 C 3,6 km/h (1 Bft)
13/09/2009 04:00 12,6 C 75 % 1021,1 hPa 0,0 mm 2,9 km/h (1 Bft) N 360 0 min 0 W/m 8,3 C 12,6 C 4,7 km/h (1 Bft)
13/09/2009 04:10 12,4 C 75 % 1021,0 hPa 0,0 mm 2,9 km/h (1 Bft) NO 315 0 min 0 W/m 8,1 C 12,4 C 4,3 km/h (1 Bft)
13/09/2009 04:20 12,3 C 76 % 1021,0 hPa 0,0 mm 2,9 km/h (1 Bft) N-NE 22 0 min 0 W/m 8,2 C 12,3 C 3,6 km/h (1 Bft)
13/09/2009 04:30 12,3 C 76 % 1020,9 hPa 0,0 mm 0,0 km/h (0 Bft) N 360 0 min 0 W/m 8,2 C 12,3 C 0,0 km/h (0 Bft)
13/09/2009 04:40 12,0 C 76 % 1020,8 hPa 0,0 mm 0,0 km/h (0 Bft) O 270 0 min 0 W/m 7,9 C 12,0 C 0,0 km/h (0 Bft)
13/09/2009 04:50 11,8 C 76 % 1020,7 hPa 0,0 mm 0,0 km/h (0 Bft) E-NE 67 0 min 0 W/m 7,7 C 11,8 C 0,0 km/h (0 Bft)
13/09/2009 05:00 11,5 C 76 % 1020,7 hPa 0,0 mm 0,0 km/h (0 Bft) E-NE 67 0 min 0 W/m 7,4 C 11,5 C 0,0 km/h (0 Bft)
13/09/2009 05:10 11,3 C 76 % 1020,7 hPa 0,0 mm 0,0 km/h (0 Bft) N 360 0 min 0 W/m 7,2 C 11,3 C 0,0 km/h (0 Bft)
13/09/2009 05:20 11,0 C 77 % 1020,7 hPa 0,0 mm 0,0 km/h (0 Bft) N-NO 337 0 min 0 W/m 7,1 C 11,0 C 0,0 km/h (0 Bft)
13/09/2009 05:30 10,8 C 77 % 1020,8 hPa 0,0 mm 0,4 km/h (0 Bft) N 360 0 min 0 W/m 6,9 C 10,8 C 0,4 km/h (0 Bft)
13/09/2009 05:40 10,6 C 78 % 1020,7 hPa 0,0 mm 0,0 km/h (0 Bft) N-NE 22 0 min 0 W/m 6,9 C 10,6 C 0,0 km/h (0 Bft)
13/09/2009 05:50 10,5 C 80 % 1020,7 hPa 0,0 mm 0,7 km/h (0 Bft) NE 45 0 min 0 W/m 7,2 C 10,5 C 1,4 km/h (1 Bft)
13/09/2009 06:00 10,5 C 80 % 1020,8 hPa 0,0 mm 0,0 km/h (0 Bft) N-NE 22 0 min 0 W/m 7,2 C 10,5 C 0,0 km/h (0 Bft)
13/09/2009 06:10 10,4 C 80 % 1020,7 hPa 0,0 mm 0,0 km/h (0 Bft) N 360 0 min 0 W/m 7,1 C 10,4 C 0,0 km/h (0 Bft)
13/09/2009 06:20 10,2 C 80 % 1020,7 hPa 0,0 mm 0,0 km/h (0 Bft) O-NO 292 0 min 0 W/m 6,9 C 10,2 C 0,0 km/h (0 Bft)
13/09/2009 06:30 9,9 C 80 % 1020,7 hPa 0,0 mm 0,0 km/h (0 Bft) O-NO 292 0 min 0 W/m 6,6 C 9,9 C 0,0 km/h (0 Bft)
13/09/2009 06:40 9,6 C 80 % 1020,8 hPa 0,0 mm 0,0 km/h (0 Bft) O-SO 247 0 min 0 W/m 6,3 C 9,6 C 0,0 km/h (0 Bft)
13/09/2009 06:50 9,3 C 80 % 1020,9 hPa 0,0 mm 0,0 km/h (0 Bft) O-SO 247 0 min 0 W/m 6,0 C 9,3 C 0,0 km/h (0 Bft)
13/09/2009 07:00 9,1 C 81 % 1020,9 hPa 0,0 mm 0,0 km/h (0 Bft) N-NE 22 0 min 0 W/m 6,0 C 9,1 C 0,0 km/h (0 Bft)
13/09/2009 07:10 8,9 C 82 % 1020,8 hPa 0,0 mm 0,0 km/h (0 Bft) N-NE 22 0 min 0 W/m 6,0 C 8,9 C 0,0 km/h (0 Bft)
13/09/2009 07:20 8,8 C 82 % 1020,9 hPa 0,0 mm 0,0 km/h (0 Bft) N 360 0 min 0 W/m 5,9 C 8,8 C 0,0 km/h (0 Bft)
13/09/2009 07:30 8,6 C 83 % 1021,0 hPa 0,0 mm 0,0 km/h (0 Bft) N-NO 337 0 min 0 W/m 5,9 C 8,6 C 0,0 km/h (0 Bft)
13/09/2009 07:40 8,6 C 83 % 1021,1 hPa 0,0 mm 0,0 km/h (0 Bft) NO 315 0 min 0 W/m 5,9 C 8,6 C 0,0 km/h (0 Bft)
13/09/2009 07:50 8,5 C 84 % 1021,1 hPa 0,0 mm 0,0 km/h (0 Bft) N 360 8 min 0 W/m 6,0 C 8,5 C 0,0 km/h (0 Bft)
13/09/2009 08:00 8,5 C 84 % 1021,2 hPa 0,0 mm 0,0 km/h (0 Bft) O-NO 292 8 min 0 W/m 6,0 C 8,5 C 0,0 km/h (0 Bft)
13/09/2009 08:10 8,6 C 85 % 1021,3 hPa 0,0 mm 0,0 km/h (0 Bft) NO 315 8 min 0 W/m 6,2 C 8,6 C 0,0 km/h (0 Bft)
13/09/2009 08:20 8,8 C 85 % 1021,3 hPa 0,0 mm 0,0 km/h (0 Bft) N-NO 337 8 min 0 W/m 6,4 C 8,8 C 0,0 km/h (0 Bft)
13/09/2009 08:30 9,0 C 86 % 1021,4 hPa 0,0 mm 1,8 km/h (1 Bft) N-NE 22 8 min 0 W/m 6,8 C 9,0 C 1,8 km/h (1 Bft)
13/09/2009 08:40 9,7 C 87 % 1021,3 hPa 0,0 mm 0,7 km/h (0 Bft) N 360 8 min 0 W/m 7,6 C 9,7 C 3,2 km/h (1 Bft)
13/09/2009 08:50 10,6 C 86 % 1021,4 hPa 0,0 mm 1,1 km/h (1 Bft) SE 135 8 min 0 W/m 8,4 C 10,6 C 2,9 km/h (1 Bft)
13/09/2009 09:00 11,6 C 84 % 1021,4 hPa 0,0 mm 4,0 km/h (1 Bft) N-NE 22 8 min 0 W/m 9,0 C 11,6 C 7,6 km/h (2 Bft)
13/09/2009 09:10 12,5 C 81 % 1021,4 hPa 0,0 mm 2,9 km/h (1 Bft) NE 45 8 min 0 W/m 9,3 C 12,5 C 5,8 km/h (2 Bft)
13/09/2009 09:20 13,4 C 79 % 1021,2 hPa 0,0 mm 2,2 km/h (1 Bft) N-NE 22 8 min 0 W/m 9,8 C 13,4 C 4,0 km/h (1 Bft)
13/09/2009 09:30 14,3 C 76 % 1021,3 hPa 0,0 mm 5,0 km/h (1 Bft) N 360 8 min 0 W/m 10,1 C 14,3 C 10,1 km/h (2 Bft)
13/09/2009 09:40 14,9 C 74 % 1021,4 hPa 0,0 mm 0,7 km/h (0 Bft) NE 45 8 min 0 W/m 10,3 C 14,9 C 6,8 km/h (2 Bft)
13/09/2009 09:50 15,8 C 70 % 1021,5 hPa 0,0 mm 0,7 km/h (0 Bft) N-NE 22 8 min 0 W/m 10,3 C 15,8 C 4,0 km/h (1 Bft)
13/09/2009 10:00 16,5 C 69 % 1021,4 hPa 0,0 mm 2,2 km/h (1 Bft) E-SE 112 8 min 0 W/m 10,8 C 16,5 C 6,5 km/h (2 Bft)
13/09/2009 10:10 17,0 C 66 % 1021,5 hPa 0,0 mm 7,2 km/h (2 Bft) E-NE 67 8 min 0 W/m 10,6 C 17,0 C 10,8 km/h (2 Bft)
13/09/2009 10:20 17,4 C 65 % 1021,5 hPa 0,0 mm 3,6 km/h (1 Bft) NE 45 8 min 0 W/m 10,8 C 17,4 C 9,0 km/h (2 Bft)
13/09/2009 10:30 17,8 C 64 % 1021,4 hPa 0,0 mm 3,6 km/h (1 Bft) N-NE 22 8 min 0 W/m 10,9 C 17,8 C 5,8 km/h (2 Bft)
13/09/2009 10:40 18,3 C 63 % 1021,6 hPa 0,0 mm 2,9 km/h (1 Bft) NE 45 8 min 0 W/m 11,1 C 18,3 C 4,7 km/h (1 Bft)
13/09/2009 10:50 18,8 C 62 % 1021,7 hPa 0,0 mm 1,1 km/h (1 Bft) E-NE 67 8 min 0 W/m 11,4 C 18,8 C 3,2 km/h (1 Bft)
13/09/2009 11:00 19,4 C 61 % 1021,7 hPa 0,0 mm 6,1 km/h (2 Bft) NO 315 8 min 0 W/m 11,7 C 19,4 C 9,4 km/h (2 Bft)
13/09/2009 11:10 19,8 C 59 % 1021,8 hPa 0,0 mm 1,8 km/h (1 Bft) NE 45 8 min 0 W/m 11,6 C 19,8 C 4,0 km/h (1 Bft)
13/09/2009 11:20 20,1 C 58 % 1021,7 hPa 0,0 mm 4,7 km/h (1 Bft) N 360 8 min 0 W/m 11,6 C 20,1 C 7,9 km/h (2 Bft)
13/09/2009 11:30 20,4 C 57 % 1021,6 hPa 0,0 mm 8,6 km/h (2 Bft) E-NE 67 8 min 0 W/m 11,6 C 20,4 C 16,9 km/h (3 Bft)
13/09/2009 11:40 20,6 C 56 % 1021,6 hPa 0,0 mm 4,3 km/h (1 Bft) N-NE 22 8 min 0 W/m 11,5 C 20,6 C 6,8 km/h (2 Bft)
13/09/2009 11:50 21,1 C 55 % 1021,5 hPa 0,0 mm 2,9 km/h (1 Bft) N-NO 337 8 min 0 W/m 11,7 C 21,1 C 7,2 km/h (2 Bft)
13/09/2009 12:00 21,3 C 54 % 1021,4 hPa 0,0 mm 3,2 km/h (1 Bft) N-NO 337 8 min 0 W/m 11,6 C 21,3 C 4,3 km/h (1 Bft)
13/09/2009 12:10 21,5 C 53 % 1021,4 hPa 0,0 mm 5,4 km/h (2 Bft) N-NE 22 8 min 0 W/m 11,5 C 21,5 C 8,6 km/h (2 Bft)
13/09/2009 12:20 21,4 C 52 % 1021,3 hPa 0,0 mm 6,1 km/h (2 Bft) N-NE 22 8 min 0 W/m 11,1 C 21,4 C 6,5 km/h (2 Bft)
13/09/2009 12:30 21,4 C 53 % 1021,3 hPa 0,0 mm 10,8 km/h (2 Bft) NE 45 8 min 0 W/m 11,4 C 21,4 C 17,3 km/h (3 Bft)
13/09/2009 12:40 21,4 C 53 % 1021,3 hPa 0,0 mm 7,9 km/h (2 Bft) NE 45 8 min 0 W/m 11,4 C 21,4 C 10,8 km/h (2 Bft)
13/09/2009 12:50 21,7 C 52 % 1021,2 hPa 0,0 mm 13,7 km/h (3 Bft) E-NE 67 8 min 0 W/m 11,4 C 21,7 C 18,4 km/h (3 Bft)
13/09/2009 13:00 21,6 C 51 % 1021,2 hPa 0,0 mm 6,5 km/h (2 Bft) E-NE 67 8 min 0 W/m 11,0 C 21,6 C 11,5 km/h (2 Bft)
13/09/2009 13:10 21,8 C 51 % 1021,1 hPa 0,0 mm 7,2 km/h (2 Bft) N 360 8 min 0 W/m 11,2 C 21,8 C 11,9 km/h (2 Bft)
13/09/2009 13:20 21,8 C 51 % 1021,0 hPa 0,0 mm 9,0 km/h (2 Bft) N-NE 22 8 min 0 W/m 11,2 C 21,8 C 14,4 km/h (3 Bft)
13/09/2009 13:30 21,8 C 51 % 1020,9 hPa 0,0 mm 9,0 km/h (2 Bft) N 360 8 min 0 W/m 11,2 C 21,8 C 10,1 km/h (2 Bft)
13/09/2009 13:40 21,8 C 51 % 1021,0 hPa 0,0 mm 13,3 km/h (3 Bft) NE 45 8 min 0 W/m 11,2 C 21,8 C 24,8 km/h (4 Bft)
13/09/2009 13:50 21,9 C 51 % 1020,9 hPa 0,0 mm 5,4 km/h (2 Bft) E-NE 67 8 min 0 W/m 11,3 C 21,9 C 5,4 km/h (2 Bft)
13/09/2009 14:00 22,1 C 49 % 1020,9 hPa 0,0 mm 10,8 km/h (2 Bft) N-NE 22 8 min 0 W/m 10,9 C 22,1 C 16,9 km/h (3 Bft)
13/09/2009 14:10 22,2 C 50 % 1020,8 hPa 0,0 mm 10,1 km/h (2 Bft) N-NE 22 8 min 0 W/m 11,3 C 22,2 C 15,8 km/h (3 Bft)
13/09/2009 14:20 22,4 C 49 % 1020,8 hPa 0,0 mm 9,7 km/h (2 Bft) NE 45 8 min 0 W/m 11,2 C 22,4 C 9,7 km/h (2 Bft)
13/09/2009 14:30 22,4 C 49 % 1020,6 hPa 0,0 mm 8,6 km/h (2 Bft) NE 45 8 min 0 W/m 11,2 C 22,4 C 14,8 km/h (3 Bft)
13/09/2009 14:40 22,6 C 49 % 1020,5 hPa 0,0 mm 8,6 km/h (2 Bft) E-NE 67 8 min 0 W/m 11,3 C 22,6 C 15,5 km/h (3 Bft)
13/09/2009 14:50 22,8 C 49 % 1020,4 hPa 0,0 mm 7,9 km/h (2 Bft) N 360 8 min 0 W/m 11,5 C 22,8 C 11,9 km/h (2 Bft)
13/09/2009 15:00 22,8 C 48 % 1020,3 hPa 0,0 mm 7,9 km/h (2 Bft) N 360 8 min 0 W/m 11,2 C 22,8 C 16,2 km/h (3 Bft)
13/09/2009 15:10 22,8 C 47 % 1020,3 hPa 0,0 mm 7,6 km/h (2 Bft) NE 45 8 min 0 W/m 10,9 C 22,8 C 12,2 km/h (2 Bft)
13/09/2009 15:20 22,8 C 48 % 1020,3 hPa 0,0 mm 13,3 km/h (3 Bft) N 360 8 min 0 W/m 11,2 C 22,8 C 23,0 km/h (4 Bft)
13/09/2009 15:30 22,8 C 48 % 1020,1 hPa 0,0 mm 4,3 km/h (1 Bft) N-NE 22 8 min 0 W/m 11,2 C 22,8 C 9,4 km/h (2 Bft)
13/09/2009 15:40 22,9 C 47 % 1020,1 hPa 0,0 mm 10,4 km/h (2 Bft) N-NE 22 8 min 0 W/m 11,0 C 22,9 C 17,3 km/h (3 Bft)
13/09/2009 15:50 23,0 C 46 % 1020,1 hPa 0,0 mm 7,6 km/h (2 Bft) E 90 8 min 0 W/m 10,7 C 23,0 C 9,0 km/h (2 Bft)
13/09/2009 16:00 23,1 C 47 % 1019,8 hPa 0,0 mm 9,0 km/h (2 Bft) N-NE 22 8 min 0 W/m 11,2 C 23,1 C 9,7 km/h (2 Bft)
13/09/2009 16:10 23,2 C 46 % 1019,9 hPa 0,0 mm 8,6 km/h (2 Bft) E-NE 67 8 min 0 W/m 10,9 C 23,2 C 11,9 km/h (2 Bft)
13/09/2009 16:20 23,4 C 45 % 1019,7 hPa 0,0 mm 10,8 km/h (2 Bft) NE 45 8 min 0 W/m 10,8 C 23,4 C 16,9 km/h (3 Bft)
13/09/2009 16:30 23,4 C 45 % 1019,6 hPa 0,0 mm 7,6 km/h (2 Bft) E-NE 67 8 min 0 W/m 10,8 C 23,4 C 12,6 km/h (3 Bft)
13/09/2009 16:40 23,5 C 43 % 1019,4 hPa 0,0 mm 10,1 km/h (2 Bft) N 360 8 min 0 W/m 10,2 C 23,5 C 15,1 km/h (3 Bft)
13/09/2009 16:50 23,4 C 43 % 1019,2 hPa 0,0 mm 9,0 km/h (2 Bft) N-NE 22 8 min 0 W/m 10,1 C 23,4 C 17,3 km/h (3 Bft)
13/09/2009 17:00 23,4 C 43 % 1019,1 hPa 0,0 mm 2,2 km/h (1 Bft) NE 45 8 min 0 W/m 10,1 C 23,4 C 6,8 km/h (2 Bft)
13/09/2009 17:10 23,4 C 42 % 1019,0 hPa 0,0 mm 9,0 km/h (2 Bft) N-NE 22 8 min 0 W/m 9,7 C 23,4 C 11,2 km/h (2 Bft)
13/09/2009 17:20 23,4 C 42 % 1018,9 hPa 0,0 mm 7,6 km/h (2 Bft) NE 45 8 min 0 W/m 9,7 C 23,4 C 8,3 km/h (2 Bft)
13/09/2009 17:30 23,3 C 42 % 1019,1 hPa 0,0 mm 4,3 km/h (1 Bft) N-NO 337 8 min 0 W/m 9,7 C 23,3 C 6,5 km/h (2 Bft)
13/09/2009 17:40 23,3 C 42 % 1018,9 hPa 0,0 mm 6,8 km/h (2 Bft) E-NE 67 8 min 0 W/m 9,7 C 23,3 C 7,6 km/h (2 Bft)
13/09/2009 17:50 23,2 C 42 % 1018,9 hPa 0,0 mm 8,3 km/h (2 Bft) N-NE 22 8 min 0 W/m 9,6 C 23,2 C 8,3 km/h (2 Bft)
13/09/2009 18:00 23,1 C 41 % 1018,8 hPa 0,0 mm 6,5 km/h (2 Bft) N 360 8 min 0 W/m 9,1 C 23,1 C 7,6 km/h (2 Bft)
13/09/2009 18:10 22,9 C 42 % 1018,9 hPa 0,0 mm 6,8 km/h (2 Bft) NE 45 8 min 0 W/m 9,3 C 22,9 C 9,7 km/h (2 Bft)
13/09/2009 18:20 22,8 C 41 % 1018,9 hPa 0,0 mm 7,6 km/h (2 Bft) N-NE 22 8 min 0 W/m 8,9 C 22,8 C 16,2 km/h (3 Bft)
13/09/2009 18:30 22,6 C 42 % 1018,9 hPa 0,0 mm 7,6 km/h (2 Bft) NE 45 8 min 0 W/m 9,0 C 22,6 C 10,8 km/h (2 Bft)
13/09/2009 18:40 22,5 C 42 % 1018,9 hPa 0,0 mm 6,5 km/h (2 Bft) N-NE 22 8 min 0 W/m 8,9 C 22,5 C 8,6 km/h (2 Bft)
13/09/2009 18:50 22,2 C 42 % 1018,9 hPa 0,0 mm 5,0 km/h (1 Bft) N-NE 22 8 min 0 W/m 8,7 C 22,2 C 8,3 km/h (2 Bft)
13/09/2009 18:55 22,0 C 42 % 1018,8 hPa 0,0 mm 4,7 km/h (1 Bft) NE 45 5 min 0 W/m 8,5 C 22,0 C 6,5 km/h (2 Bft)
13/09/2009 19:00 21,8 C 42 % 1018,9 hPa 0,0 mm 6,1 km/h (2 Bft) N-NE 22 5 min 0 W/m 8,3 C 21,8 C 9,0 km/h (2 Bft)
13/09/2009 19:05 21,6 C 42 % 1018,9 hPa 0,0 mm 4,7 km/h (1 Bft) N-NE 22 5 min 0 W/m 8,1 C 21,6 C 10,8 km/h (2 Bft)
13/09/2009 19:10 21,4 C 42 % 1018,9 hPa 0,0 mm 10,1 km/h (2 Bft) N-NE 22 5 min 0 W/m 8,0 C 21,4 C 12,2 km/h (2 Bft)
13/09/2009 19:15 21,3 C 42 % 1018,9 hPa 0,0 mm 6,8 km/h (2 Bft) NE 45 5 min 0 W/m 7,9 C 21,3 C 8,6 km/h (2 Bft)
13/09/2009 19:20 21,1 C 43 % 1018,9 hPa 0,0 mm 7,2 km/h (2 Bft) NE 45 5 min 0 W/m 8,0 C 21,1 C 11,2 km/h (2 Bft)
13/09/2009 19:25 21,0 C 44 % 1018,8 hPa 0,0 mm 4,3 km/h (1 Bft) N-NE 22 5 min 0 W/m 8,3 C 21,0 C 8,6 km/h (2 Bft)
13/09/2009 19:30 20,8 C 44 % 1018,8 hPa 0,0 mm 4,7 km/h (1 Bft) N 360 5 min 0 W/m 8,1 C 20,8 C 8,3 km/h (2 Bft)
13/09/2009 19:35 20,7 C 44 % 1018,8 hPa 0,0 mm 9,7 km/h (2 Bft) N-NE 22 5 min 0 W/m 8,0 C 20,7 C 10,4 km/h (2 Bft)
13/09/2009 19:40 20,5 C 44 % 1018,7 hPa 0,0 mm 5,4 km/h (2 Bft) N-NE 22 5 min 0 W/m 7,8 C 20,5 C 5,4 km/h (2 Bft)
13/09/2009 19:45 20,4 C 45 % 1018,7 hPa 0,0 mm 6,8 km/h (2 Bft) N 360 5 min 0 W/m 8,1 C 20,4 C 10,8 km/h (2 Bft)
13/09/2009 19:50 20,2 C 45 % 1018,7 hPa 0,0 mm 2,9 km/h (1 Bft) N-NO 337 5 min 0 W/m 7,9 C 20,2 C 4,0 km/h (1 Bft)
13/09/2009 19:55 19,9 C 45 % 1018,8 hPa 0,0 mm 7,6 km/h (2 Bft) N-NE 22 5 min 0 W/m 7,6 C 19,9 C 13,3 km/h (3 Bft)
13/09/2009 20:00 19,8 C 46 % 1018,8 hPa 0,0 mm 2,2 km/h (1 Bft) N-NE 22 5 min 0 W/m 7,8 C 19,8 C 4,0 km/h (1 Bft)
13/09/2009 20:05 19,6 C 46 % 1018,9 hPa 0,0 mm 5,0 km/h (1 Bft) NE 45 0 min 0 W/m 7,7 C 19,6 C 9,7 km/h (2 Bft)
13/09/2009 20:10 19,4 C 47 % 1019,0 hPa 0,0 mm 7,9 km/h (2 Bft) N-NE 22 0 min 0 W/m 7,8 C 19,4 C 12,2 km/h (2 Bft)
13/09/2009 20:15 19,3 C 47 % 1018,9 hPa 0,0 mm 4,0 km/h (1 Bft) N-NE 22 0 min 0 W/m 7,7 C 19,3 C 4,0 km/h (1 Bft)
13/09/2009 20:20 19,1 C 48 % 1019,0 hPa 0,0 mm 4,0 km/h (1 Bft) N 360 0 min 0 W/m 7,8 C 19,1 C 6,8 km/h (2 Bft)
13/09/2009 20:25 18,9 C 48 % 1019,0 hPa 0,0 mm 2,5 km/h (1 Bft) N-NE 22 0 min 0 W/m 7,6 C 18,9 C 6,1 km/h (2 Bft)
13/09/2009 20:30 18,8 C 49 % 1019,1 hPa 0,0 mm 3,2 km/h (1 Bft) N 360 0 min 0 W/m 7,9 C 18,8 C 3,2 km/h (1 Bft)
13/09/2009 20:35 18,6 C 49 % 1019,2 hPa 0,0 mm 3,2 km/h (1 Bft) N-NE 22 0 min 0 W/m 7,7 C 18,6 C 4,3 km/h (1 Bft)
13/09/2009 20:40 18,4 C 49 % 1019,2 hPa 0,0 mm 3,6 km/h (1 Bft) NE 45 0 min 0 W/m 7,5 C 18,4 C 3,6 km/h (1 Bft)
13/09/2009 20:45 18,3 C 50 % 1019,2 hPa 0,0 mm 7,2 km/h (2 Bft) N-NE 22 0 min 0 W/m 7,7 C 18,3 C 14,0 km/h (3 Bft)
13/09/2009 20:50 18,2 C 50 % 1019,2 hPa 0,0 mm 9,7 km/h (2 Bft) N-NO 337 0 min 0 W/m 7,6 C 18,2 C 15,5 km/h (3 Bft)
13/09/2009 20:55 18,0 C 50 % 1019,2 hPa 0,0 mm 4,0 km/h (1 Bft) N 360 0 min 0 W/m 7,4 C 18,0 C 6,5 km/h (2 Bft)
13/09/2009 21:00 17,9 C 50 % 1019,3 hPa 0,0 mm 5,8 km/h (2 Bft) N 360 0 min 0 W/m 7,3 C 17,9 C 9,7 km/h (2 Bft)
13/09/2009 21:05 17,8 C 51 % 1019,3 hPa 0,0 mm 5,4 km/h (2 Bft) E 90 0 min 0 W/m 7,5 C 17,8 C 5,4 km/h (2 Bft)
13/09/2009 21:10 17,6 C 51 % 1019,4 hPa 0,0 mm 3,2 km/h (1 Bft) N-NE 22 0 min 0 W/m 7,3 C 17,6 C 6,5 km/h (2 Bft)
13/09/2009 21:15 17,5 C 51 % 1019,4 hPa 0,0 mm 4,0 km/h (1 Bft) N 360 0 min 0 W/m 7,3 C 17,5 C 4,0 km/h (1 Bft)
13/09/2009 21:20 17,4 C 51 % 1019,4 hPa 0,0 mm 4,0 km/h (1 Bft) N 360 0 min 0 W/m 7,2 C 17,4 C 11,2 km/h (2 Bft)
13/09/2009 21:25 17,2 C 51 % 1019,5 hPa 0,0 mm 4,7 km/h (1 Bft) N-NE 22 0 min 0 W/m 7,0 C 17,2 C 13,3 km/h (3 Bft)
13/09/2009 21:30 17,1 C 52 % 1019,6 hPa 0,0 mm 2,2 km/h (1 Bft) NE 45 0 min 0 W/m 7,2 C 17,1 C 4,3 km/h (1 Bft)
13/09/2009 21:35 16,9 C 52 % 1019,6 hPa 0,0 mm 2,9 km/h (1 Bft) N 360 0 min 0 W/m 7,0 C 16,9 C 4,0 km/h (1 Bft)
13/09/2009 21:40 16,8 C 52 % 1019,7 hPa 0,0 mm 2,2 km/h (1 Bft) N-NE 22 0 min 0 W/m 6,9 C 16,8 C 3,2 km/h (1 Bft)
13/09/2009 21:45 16,6 C 53 % 1019,7 hPa 0,0 mm 5,0 km/h (1 Bft) N 360 0 min 0 W/m 7,0 C 16,6 C 11,5 km/h (2 Bft)
13/09/2009 21:50 16,5 C 54 % 1019,9 hPa 0,0 mm 7,2 km/h (2 Bft) N-NE 22 0 min 0 W/m 7,2 C 16,5 C 11,9 km/h (2 Bft)
13/09/2009 21:55 16,3 C 54 % 1019,9 hPa 0,0 mm 6,5 km/h (2 Bft) E-NE 67 0 min 0 W/m 7,0 C 16,3 C 11,2 km/h (2 Bft)
13/09/2009 22:00 16,3 C 55 % 1020,0 hPa 0,0 mm 8,6 km/h (2 Bft) NE 45 0 min 0 W/m 7,2 C 16,3 C 11,2 km/h (2 Bft)
13/09/2009 22:05 16,2 C 55 % 1020,0 hPa 0,0 mm 5,4 km/h (2 Bft) E 90 0 min 0 W/m 7,2 C 16,2 C 10,1 km/h (2 Bft)
13/09/2009 22:10 16,2 C 56 % 1020,0 hPa 0,0 mm 6,8 km/h (2 Bft) NE 45 0 min 0 W/m 7,4 C 16,2 C 10,4 km/h (2 Bft)
13/09/2009 22:15 16,2 C 57 % 1020,0 hPa 0,0 mm 7,2 km/h (2 Bft) N 360 0 min 0 W/m 7,7 C 16,2 C 11,5 km/h (2 Bft)
13/09/2009 22:20 16,1 C 57 % 1020,0 hPa 0,0 mm 6,1 km/h (2 Bft) NE 45 0 min 0 W/m 7,6 C 16,1 C 9,7 km/h (2 Bft)
13/09/2009 22:25 16,0 C 58 % 1020,1 hPa 0,0 mm 6,5 km/h (2 Bft) E 90 0 min 0 W/m 7,7 C 16,0 C 8,3 km/h (2 Bft)
13/09/2009 22:30 15,9 C 59 % 1020,1 hPa 0,0 mm 8,3 km/h (2 Bft) N-NE 22 0 min 0 W/m 7,9 C 15,9 C 19,4 km/h (3 Bft)
13/09/2009 22:35 15,9 C 59 % 1020,1 hPa 0,0 mm 3,6 km/h (1 Bft) NE 45 0 min 0 W/m 7,9 C 15,9 C 8,6 km/h (2 Bft)
13/09/2009 22:40 15,8 C 60 % 1020,2 hPa 0,0 mm 6,5 km/h (2 Bft) O-NO 292 0 min 0 W/m 8,1 C 15,8 C 10,8 km/h (2 Bft)
13/09/2009 22:45 15,7 C 61 % 1020,1 hPa 0,0 mm 5,8 km/h (2 Bft) N 360 0 min 0 W/m 8,2 C 15,7 C 7,2 km/h (2 Bft)
13/09/2009 22:50 15,6 C 61 % 1020,2 hPa 0,0 mm 6,8 km/h (2 Bft) N 360 0 min 0 W/m 8,1 C 15,6 C 6,8 km/h (2 Bft)
13/09/2009 22:55 15,5 C 61 % 1020,2 hPa 0,0 mm 6,5 km/h (2 Bft) N 360 0 min 0 W/m 8,0 C 15,5 C 7,2 km/h (2 Bft)
13/09/2009 23:00 15,4 C 61 % 1020,1 hPa 0,0 mm 2,9 km/h (1 Bft) N-NE 22 0 min 0 W/m 7,9 C 15,4 C 6,8 km/h (2 Bft)
13/09/2009 23:05 15,3 C 62 % 1020,0 hPa 0,0 mm 8,6 km/h (2 Bft) E-NE 67 0 min 0 W/m 8,1 C 15,3 C 12,6 km/h (3 Bft)
13/09/2009 23:10 15,2 C 63 % 1020,1 hPa 0,0 mm 5,0 km/h (1 Bft) E-NE 67 0 min 0 W/m 8,2 C 15,2 C 6,5 km/h (2 Bft)
13/09/2009 23:15 15,1 C 63 % 1020,0 hPa 0,0 mm 4,3 km/h (1 Bft) E-NE 67 0 min 0 W/m 8,1 C 15,1 C 8,6 km/h (2 Bft)
13/09/2009 23:20 15,0 C 63 % 1020,0 hPa 0,0 mm 2,5 km/h (1 Bft) NE 45 0 min 0 W/m 8,0 C 15,0 C 2,5 km/h (1 Bft)
13/09/2009 23:25 14,9 C 64 % 1020,1 hPa 0,0 mm 3,2 km/h (1 Bft) N-NO 337 0 min 0 W/m 8,2 C 14,9 C 4,0 km/h (1 Bft)
13/09/2009 23:30 14,8 C 64 % 1020,1 hPa 0,0 mm 5,8 km/h (2 Bft) N-NE 22 0 min 0 W/m 8,1 C 14,8 C 6,8 km/h (2 Bft)
13/09/2009 23:35 14,6 C 64 % 1020,1 hPa 0,0 mm 4,0 km/h (1 Bft) NE 45 0 min 0 W/m 7,9 C 14,6 C 8,3 km/h (2 Bft)
13/09/2009 23:40 14,6 C 65 % 1020,0 hPa 0,0 mm 6,5 km/h (2 Bft) NO 315 0 min 0 W/m 8,1 C 14,6 C 11,9 km/h (2 Bft)
13/09/2009 23:45 14,4 C 65 % 1020,0 hPa 0,0 mm 5,0 km/h (1 Bft) NE 45 0 min 0 W/m 7,9 C 14,4 C 8,6 km/h (2 Bft)
13/09/2009 23:50 14,4 C 65 % 1020,0 hPa 0,0 mm 7,2 km/h (2 Bft) NE 45 0 min 0 W/m 7,9 C 14,4 C 10,4 km/h (2 Bft)
13/09/2009 23:55 14,3 C 66 % 1020,0 hPa 0,0 mm 2,9 km/h (1 Bft) NE 45 0 min 0 W/m 8,0 C 14,3 C 4,0 km/h (1 Bft)
_ Min-Heure 08:00 18:20 19:50 - 08:20 - - - - 07:40 08:00 08:20
Minimum _ 8,5 C 41 % 1018,7 hPa - 0,0 km/h (0 Bft) - - - - 5,9 C 8,5 C 0,0 km/h (0 Bft)
_ Max-Heure 16:40 08:40 11:10 23:55 12:50 - - 18:50 23:55 11:50 16:40 13:40
Maximum _ 23,5 C 87 % 1021,8 hPa 0,0 mm 13,7 km/h
E-NE (3 Bft)
- - 8 min 0 W/m 11,7 C 23,5 C 24,8 km/h
NE (4 Bft)
Moyenne _ 16,9 C 61 % 1020,5 hPa #0,0 mm 4,6 km/h (1 Bft) N-NE - 4 min 0 W/m 9,0 C 16,9 C 7,2 km/h (2 Bft)
Saint Bonnet de Bellac- Haute Vienne - France